Volver al catálogo

OPS 4682 DEB

ActivoPO
NORAD 38360·DEBRIS·🇺🇸 United States

Lanzado Apr 3, 1965 desde Vandenberg Space Force Base

Loading…

Próximos Pases (próximas 24 horas)

TLE

ActualizadoSource: Space-Track

Época: Sep 12, 2026, 17:23 UTC

1 38360U 65027BM  26255.72442273 -.00000633  00000-0 -20999-2 0  9996
2 38360  90.2439   6.7501 0032526 358.9218   1.1829 13.00847888676201

Sigue OPS 4682 DEB en tiempo real con AllMySat

Download on the App Store